Reading, PA

1:23 PM EST on December 06, 2019 (GMT -0500)
Reading Regional-Spaatz

Weather History for KRDG - November, 2019

Change the Weather History Date:

Wednesday, November 13, 2019

  Actual Average Record
Temperature  
Mean Temperature 26 °F 45 °F  
Max Temperature 34 °F 55 °F 74 °F (1902)
Min Temperature 19 °F 36 °F 21 °F (1976)
Degree Days  
Heating Degree Days 38 20  
Month to date heating degree days 308 234  
Since 1 July heating degree days 547 672  
Cooling Degree Days 0 0  
Month to date cooling degree days 0 0  
Year to date cooling degree days 1239 896  
Moisture  
Dew Point 14 °F    
Average Humidity 60    
Maximum Humidity 81    
Minimum Humidity 41    
Precipitation  
Precipitation 0.00 in 0.10 in 1.84 in (1975)
Month to date precipitation 0.43 1.41  
Year to date precipitation 49.19 37.93  
Sea Level Pressure  
Sea Level Pressure 30.38 in    
Wind  
Wind Speed 7 mph ()    
Max Wind Speed 20 mph    
Max Gust Speed 25 mph    
Visibility 10.0 miles    
Events      
T = Trace of Precipitation, MM = Missing Value Source: Averaged Metar Reports

Daily Weather History Graph

Daily Weather History Graph

Search for Another Location

Airport or City:

Astronomy

Nov. 13, 2019 Rise Set
Actual Time 6:47 AM EST 4:48 PM EST
Civil Twilight 6:18 AM EST 5:17 PM EST
Nautical Twilight 5:45 AM EST 5:50 PM EST
Astronomical Twilight 5:13 AM EST 6:22 PM EST
Moon 5:50 PM EST (11/13) 7:38 AM EST (11/13)
Length of Visible Light 10h 59m
Length of Day
10h 01m
Full, 99% of the Moon is Illuminated
Nov 13
Full
Nov 19
Last Quarter
Nov 26
New
Dec 4
First Quarter
Dec 12
Full

Hourly Weather History & Observations

Time (EST) Temp. Windchill Dew Point Humidity Pressure Visibility Wind Dir Wind Speed Gust Speed Precip Events Conditions
12:54 AM 21.9 °F 11.7 °F 8.1 °F 55% 30.27 in 10.0 mi NW 9.2 mph - N/A   Clear
1:54 AM 21.9 °F 11.0 °F 8.1 °F 55% 30.29 in 10.0 mi NW 10.4 mph - N/A   Clear
2:54 AM 21.0 °F 13.4 °F 9.0 °F 60% 30.30 in 10.0 mi NW 5.8 mph - N/A   Clear
3:54 AM 21.0 °F 11.4 °F 9.0 °F 60% 30.31 in 10.0 mi WNW 8.1 mph - N/A   Clear
4:54 AM 21.0 °F 14.6 °F 10.0 °F 63% 30.32 in 10.0 mi WNW 4.6 mph - N/A   Clear
5:54 AM 21.0 °F 14.6 °F 10.0 °F 63% 30.34 in 10.0 mi WNW 4.6 mph - N/A   Clear
6:54 AM 19.9 °F 11.1 °F 12.0 °F 71% 30.36 in 10.0 mi WNW 6.9 mph - N/A   Clear
7:54 AM 24.1 °F 18.2 °F 15.1 °F 69% 30.38 in 10.0 mi WNW 4.6 mph - N/A   Clear
8:54 AM 27.0 °F 18.0 °F 16.0 °F 63% 30.40 in 10.0 mi NW 9.2 mph - N/A   Mostly Cloudy
9:54 AM 28.9 °F 18.2 °F 16.0 °F 58% 30.41 in 10.0 mi NW 13.8 mph - N/A   Scattered Clouds
10:54 AM 30.0 °F 19.5 °F 15.1 °F 54% 30.42 in 10.0 mi WNW 13.8 mph 19.6 mph N/A   Clear
11:54 AM 32.0 °F 22.5 °F 15.1 °F 50% 30.41 in 10.0 mi NW 12.7 mph 20.7 mph N/A   Scattered Clouds
12:54 PM 33.1 °F 23.4 °F 14.0 °F 46% 30.40 in 10.0 mi NNW 13.8 mph 21.9 mph N/A   Clear
1:54 PM 33.1 °F 23.0 °F 12.9 °F 43% 30.38 in 10.0 mi North 15.0 mph - N/A   Clear
2:54 PM 33.1 °F 23.9 °F 14.0 °F 46% 30.40 in 10.0 mi NW 12.7 mph - N/A   Partly Cloudy
3:54 PM 32.0 °F 24.8 °F 14.0 °F 48% 30.39 in 10.0 mi NW 8.1 mph - N/A   Clear
4:54 PM 30.0 °F 25.2 °F 12.9 °F 49% 30.40 in 10.0 mi NNW 4.6 mph - N/A   Clear
5:54 PM 28.9 °F - 12.9 °F 51% 30.41 in 10.0 mi Calm Calm - N/A   Clear
6:54 PM 28.0 °F 22.8 °F 15.1 °F 58% 30.45 in 10.0 mi SW 4.6 mph - N/A   Clear
7:54 PM 27.0 °F - 18.0 °F 69% 30.43 in 10.0 mi Calm Calm - N/A   Clear
8:54 PM 28.0 °F - 18.0 °F 66% 30.43 in 10.0 mi Calm Calm - N/A   Clear
9:54 PM 27.0 °F - 21.0 °F 78% 30.43 in 10.0 mi Calm Calm - N/A   Clear
10:54 PM 27.0 °F - 21.0 °F 78% 30.43 in 10.0 mi Calm Calm - N/A   Clear
11:54 PM 27.0 °F - 19.9 °F 75% 30.44 in 10.0 mi Calm Calm - N/A   Clear